Mineral Wells, TX

7:44 PM CST on December 05, 2016 (GMT -0600)
Mineral Wells

Weather History for KMWL - July, 2013

Change the Weather History Date:

Sunday, July 14, 2013

  Actual Average Record
Temperature  
Mean Temperature 74 °F -  
Max Temperature 82 °F 94 °F 106 °F (2011)
Min Temperature 66 °F 71 °F 66 °F (2002)
Cooling Degree Days 9    
Growing Degree Days 24 (Base 50)    
Moisture  
Dew Point 64 °F    
Average Humidity 82    
Maximum Humidity 100    
Minimum Humidity 44    
Precipitation  
Precipitation 0.56 in - - ()
Sea Level Pressure  
Sea Level Pressure 29.94 in    
Wind  
Wind Speed 9 mph (East)    
Max Wind Speed 20 mph    
Max Gust Speed 29 mph    
Visibility 9 miles    
Events Rain    
Averages and records for this station are not official NWS values.
T = Trace of Precipitation, MM = Missing Value Source: NWS Daily Summary

Daily Weather History Graph

Daily Weather History Graph

Search for Another Location

Airport or City:

Trip Planner

Search our weather history database for the weather conditions in past years. The results will help you decide how hot, cold, wet, or windy it might be!

Date:

Astronomy

Jul. 14, 2013 Rise Set
Actual Time 6:34 AM CDT 8:41 PM CDT
Civil Twilight 6:06 AM CDT 9:09 PM CDT
Nautical Twilight 5:32 AM CDT 9:43 PM CDT
Astronomical Twilight 4:55 AM CDT 10:20 PM CDT
Moon 12:29 PM CDT (7/14) No Moon Set
Length of Visible Light 15h 02m
Length of Day
14h 06m
Waxing Crescent, 35% of the Moon is Illuminated
Jul 14
Waxing Crescent
Jul 15
First Quarter
Jul 22
Full
Jul 29
Last Quarter
Aug 6
New

Hourly Weather History & Observations

Time (CDT) Temp. Heat Index Dew Point Humidity Pressure Visibility Wind Dir Wind Speed Gust Speed Precip Events Conditions
12:53 AM 82.9 °F 82.8 °F 59.0 °F 44% 29.88 in 10.0 mi ESE 9.2 mph - N/A   Clear
1:53 AM 81.0 °F 81.7 °F 61.0 °F 50% 29.87 in 10.0 mi SE 10.4 mph - N/A   Clear
2:53 AM 79.0 °F - 60.1 °F 52% 29.86 in 10.0 mi ESE 8.1 mph - N/A   Clear
3:53 AM 77.0 °F - 59.0 °F 54% 29.85 in 10.0 mi SE 8.1 mph - N/A   Clear
4:53 AM 75.0 °F - 57.9 °F 55% 29.83 in 10.0 mi ESE 6.9 mph - N/A   Clear
5:53 AM 75.9 °F - 57.0 °F 52% 29.88 in 10.0 mi NNE 12.7 mph 18.4 mph N/A   Mostly Cloudy
6:53 AM 72.0 °F - 62.1 °F 71% 29.89 in 10.0 mi East 19.6 mph 28.8 mph 0.00 in   Mostly Cloudy
7:53 AM 66.9 °F - 64.0 °F 90% 29.91 in 10.0 mi East 17.3 mph - 0.05 in   Overcast
8:53 AM 69.1 °F - 66.0 °F 90% 29.90 in 10.0 mi SE 10.4 mph - 0.00 in   Mostly Cloudy
9:53 AM 71.1 °F - 66.9 °F 87% 29.95 in 10.0 mi NE 15.0 mph 19.6 mph 0.00 in Rain Light Rain
10:53 AM 71.1 °F - 64.0 °F 78% 29.96 in 10.0 mi East 11.5 mph - 0.00 in   Mostly Cloudy
11:53 AM 69.1 °F - 63.0 °F 81% 29.98 in 10.0 mi ENE 12.7 mph 21.9 mph N/A   Overcast
12:53 PM 70.0 °F - 62.1 °F 76% 29.97 in 10.0 mi ENE 12.7 mph - N/A   Scattered Clouds
1:53 PM 73.0 °F - 62.1 °F 68% 29.94 in 10.0 mi ESE 13.8 mph - 0.00 in   Mostly Cloudy
2:53 PM 71.1 °F - 64.0 °F 78% 29.93 in 10.0 mi SE 10.4 mph - 0.00 in Rain Light Rain
3:53 PM 70.0 °F - 64.0 °F 81% 29.94 in 10.0 mi SSE 3.5 mph - 0.00 in Rain Light Rain
4:53 PM 70.0 °F - 64.9 °F 84% 29.94 in 10.0 mi NE 8.1 mph - 0.01 in Rain Light Rain
5:53 PM 69.1 °F - 66.0 °F 90% 29.92 in 7.0 mi East 6.9 mph - 0.03 in Rain Light Rain
6:53 PM 68.0 °F - 66.9 °F 96% 29.91 in 5.0 mi SE 4.6 mph - 0.07 in Rain Rain
7:53 PM 68.0 °F - 66.9 °F 96% 29.94 in 4.0 mi SW 3.5 mph - 0.09 in Rain Light Rain
8:35 PM 68.0 °F - 66.2 °F 94% 29.99 in 7.0 mi NNE 4.6 mph - 0.05 in Rain Light Rain
8:43 PM 68.0 °F - 66.2 °F 94% 29.99 in 10.0 mi NE 3.5 mph - 0.05 in Rain Light Rain
8:53 PM 66.9 °F - 66.0 °F 97% 29.96 in 10.0 mi Calm Calm - 0.05 in Rain Light Rain
9:06 PM 68.0 °F - 64.4 °F 88% 29.98 in 10.0 mi Calm Calm - 0.01 in Rain Light Rain
9:24 PM 68.0 °F - 66.2 °F 94% 29.97 in 10.0 mi Calm Calm - 0.01 in Rain Light Rain
9:36 PM 68.0 °F - 66.2 °F 94% 29.96 in 10.0 mi Calm Calm - 0.02 in Rain Light Rain
9:53 PM 68.0 °F - 66.0 °F 93% 29.94 in 10.0 mi North 3.5 mph - 0.03 in Rain Light Rain
10:27 PM 66.2 °F - 66.2 °F 100% 29.99 in 6.0 mi NNE 4.6 mph - 0.03 in Rain Rain
10:36 PM 66.2 °F - 66.2 °F 100% 29.99 in 6.0 mi NE 4.6 mph - 0.04 in Rain Rain
10:53 PM 66.9 °F - 66.9 °F 100% 29.97 in 5.0 mi NE 5.8 mph - 0.08 in Rain Rain
11:01 PM 66.2 °F - 66.2 °F 100% 30.01 in 4.0 mi NE 4.6 mph - 0.02 in Rain Heavy Rain
11:53 PM 66.9 °F - 66.0 °F 97% 29.98 in 5.0 mi ENE 3.5 mph - 0.15 in Rain Light Rain